#timestamp,LO_Frequency,Hit,StdDev 
1620313215.6,286047002.8,N
1620313235.4,286047000.0,N
1620313255.3,286047002.8,N
1620313275.1,286047000.7,N
1620313295.9,286047000.8,N
1620313315.7,286046998.6,N
1620313335.5,286047000.9,N
1620313355.4,286046997.5,N
1620313375.2,286046997.6,N
1620313395.0,286046997.2,N
1620313395.9,286046997.2,N
1620313415.8,286046999.0,N
1620313435.6,286047000.7,N
1620313455.5,286047001.2,N
1620313475.3,286047001.1,N
1620313495.1,286047000.5,N
1620313515.9,286047001.9,N
1620313535.7,286047000.9,N
1620313555.5,286046998.1,N
1620313575.4,286046999.8,N
1620313595.2,286047000.5,N
1620313615.0,286047000.2,N
1620313616.0,286047000.2,N
1620313635.8,286047002.4,N
1620313655.6,286047002.7,N
1620313675.5,286047001.1,N
1620313695.3,286046998.3,N
1620313715.1,286047000.5,N
1620313735.9,286047002.6,N
1620313755.7,286047000.3,N
1620313775.6,286046998.4,N
1620313795.4,286046998.5,N
1620313815.2,286047002.5,N
1620313835.1,286047002.4,N
1620313836.0,286047002.4,N
1620313855.8,286047003.5,N
1620313875.7,286047004.1,N
1620313895.5,286047002.6,N
1620313915.3,286047001.4,N
1620313935.2,286047001.6,N
1620313955.0,286047000.5,N
1620313955.9,286047000.5,N
1620313975.7,286047002.8,N
1620313995.6,286047000.1,N
1620314015.4,286047000.5,N
1620314035.3,286047002.3,N
1620314055.1,286047001.7,N
1620314075.8,286047004.2,N
1620314095.7,286047002.0,N
1620314115.5,286047001.7,N
1620314135.4,286047003.4,N
1620314155.2,286047005.6,Y
1620314175.0,286047005.6,P
1620314175.9,286047005.6,N
1620314195.8,286047001.5,N
1620314215.6,286047000.4,N
1620314235.5,286047002.1,N
1620314255.3,286047001.7,N
1620314275.1,286046999.9,N
1620314295.9,286046999.6,N
1620314315.7,286046999.2,N
1620314335.5,286046997.6,N
1620314355.4,286046998.9,N
1620314375.2,286046996.7,N
1620314395.1,286046996.9,N
1620314396.0,286046996.9,N
1620314415.8,286046998.4,N
1620314435.6,286046998.8,N
1620314455.5,286046998.3,N
1620314475.3,286047001.2,N
1620314495.1,286047000.2,N
1620314515.9,286046999.9,N
1620314535.7,286047001.0,N
1620314555.6,286046998.6,N
1620314575.4,286047001.2,N
1620314595.2,286046997.0,N
1620314615.1,286046998.5,N
1620314616.0,286046998.5,N
1620314635.8,286047001.0,N
1620314655.6,286046998.1,N
1620314675.5,286047000.9,N
1620314695.3,286046999.9,N
1620314715.2,286046998.3,N
1620314735.9,286047001.2,N
1620314755.7,286047002.4,N
1620314775.6,286047001.8,N
1620314795.4,286047000.5,N
1620314815.2,286047000.8,N
1620314835.1,286046998.4,N
1620314836.0,286046998.4,N
1620314855.8,286047000.3,N
1620314875.7,286046998.8,N
1620314895.5,286046998.7,N
1620314915.3,286047001.1,N
1620314935.2,286047001.1,N
1620314955.0,286046996.9,N
1620314955.9,286046996.9,N
1620314975.7,286046997.0,N
1620314995.6,286046995.7,N
1620315015.4,286046997.5,N
1620315035.3,286046997.4,N
1620315055.1,286046995.2,N
1620315056.0,286046995.2,N
1620315075.8,286046991.7,Y
1620315095.7,286046993.3,P
1620315115.5,286046996.8,N
1620315135.4,286046996.6,N
1620315155.2,286046999.1,N
1620315175.0,286046998.6,N
1620315175.9,286046998.6,N
1620315195.8,286046998.2,N
1620315215.6,286047001.0,N
1620315235.4,286047000.0,N
1620315255.3,286046999.0,N
1620315275.1,286046996.7,N
1620315295.9,286046999.6,N
1620315315.7,286046998.6,N
1620315335.5,286047000.1,N
1620315355.4,286047000.7,N
1620315375.2,286046999.6,N
1620315395.0,286046998.7,N
1620315395.9,286046998.7,N
1620315415.8,286047000.6,N
1620315435.6,286047002.7,N
1620315455.5,286047001.1,N
1620315475.3,286047001.2,N
1620315495.1,286047001.2,N
1620315515.9,286046997.7,N
1620315535.7,286046997.5,N
1620315555.5,286046997.2,N
1620315575.4,286046997.1,N
1620315595.2,286046996.8,N
1620315615.1,286046996.6,N
1620315616.0,286046996.6,N
1620315635.8,286046999.5,N
1620315655.6,286046998.4,N
1620315675.5,286046998.2,N
1620315695.3,286047000.7,N
1620315715.1,286047002.4,N
1620315735.9,286046998.4,N
1620315755.7,286047000.0,N
1620315775.6,286046998.8,N
1620315795.4,286046999.5,N
1620315815.2,286047001.2,N
1620315835.1,286046996.8,N
1620315836.0,286046996.8,N
1620315855.8,286046998.5,N
1620315875.7,286047000.5,N
1620315895.5,286047000.6,N
1620315915.3,286047000.2,N
1620315935.2,286047001.1,N
1620315955.0,286047002.8,N
1620315955.9,286047002.8,N
1620315975.7,286047000.4,N
1620315995.6,286047001.7,N
1620316015.4,286047000.1,N
1620316035.3,286047003.5,N
1620316055.1,286047005.1,N
1620316075.8,286047003.7,N
1620316095.7,286046999.7,N
1620316115.5,286047002.3,N
1620316135.4,286047002.1,N
1620316155.2,286047002.4,N
1620316175.0,286046998.8,N
1620316175.9,286046998.8,N
1620316195.8,286047000.5,N
1620316215.6,286046999.7,N
1620316235.5,286047002.6,N
1620316255.3,286047004.1,N
1620316275.1,286047004.3,N
1620316295.9,286046999.9,N
1620316315.7,286047000.5,N
1620316335.5,286047000.9,N
1620316355.4,286046999.4,N
1620316375.2,286046999.3,N
1620316395.1,286046999.8,N
1620316396.0,286046999.8,N
1620316415.8,286047000.1,N
1620316435.6,286047002.6,N
1620316455.5,286046999.8,N
1620316475.3,286047001.4,N
1620316495.1,286047004.2,N
1620316515.9,286047005.6,Y
1620316535.7,286047004.0,P
1620316555.6,286047004.3,P
1620316575.4,286047001.6,N
1620316595.2,286047004.2,Y
1620316615.1,286047000.7,P
1620316616.0,286047000.7,N
1620316635.8,286046995.3,P
1620316655.7,286046997.6,N
1620316675.5,286046998.1,N
1620316695.3,286046996.7,N
1620316715.2,286046995.3,N
1620316735.9,286046997.5,N
1620316755.7,286046994.0,N
1620316775.6,286046991.0,Y
1620316795.4,286046992.0,P
